Location: Broekland
(52.3610°N, 6.2005°E)
Time: 00:57:17
(UTC+00:00)

USA 234 - Pass Details

Date: 19 May 2025
Orbit: 1097 x 1111 km, 123.0° (Epoch: 19 June)

Event Time Altitude Azimuth Distance (km) Brightness Sun altitude
Rises 22:30:48 0° 67° (ENE) 3,921 6.3 -16.5°
Reaches altitude 10° 22:33:17 10° 65° (ENE) 2,964 5.6 -16.5°
Maximum altitude 22:39:48 72° 343° (NNW) 1,158 3.5 -16.8°
Drops below altitude 10° 22:46:19 10° 261° (W) 2,968 5.5 -17.0°
Sets 22:48:48 0° 259° (W) 3,927 6.2 -17.1°
